SQ7ACP-3 Weather Reports


time (UTC)temp
C
wind
direction
speed
KPH
gust
KPH
rain 1hr
cm
rain 24hr
cm
rain mn
cm
humidity
%
barometer
mb
20260508053301 8 354 1.6 1.6 0.00 0.00 0.00 94 1015.9
20260508052248 8 320 0.0 0.0 0.00 0.00 0.00 93 1015.9
20260508051236 8 359 3.2 3.2 0.00 0.00 0.00 94 1015.9
20260508050224 8 4 1.6 1.6 0.00 0.00 0.00 94 1015.9
20260508045224 8 346 0.0 0.0 0.00 0.00 0.00 93 1015.8
20260508044211 8 324 1.6 1.6 0.00 0.00 0.00 92 1015.7
20260508043211 8 342 0.0 0.0 0.00 0.00 0.00 92 1015.6
20260508042158 8 354 0.0 0.0 0.00 0.00 0.00 92 1015.6
20260508041146 8 5 0.0 0.0 0.00 0.00 0.00 92 1015.5
20260508040133 8 342 0.0 0.0 0.00 0.00 0.00 92 1015.3
20260508035133 8 342 0.0 0.0 0.00 0.00 0.00 92 1015.4
20260508034133 8 353 0.0 0.0 0.00 0.00 0.00 91 1015.2
20260508033121 8 72 0.0 0.0 0.00 0.00 0.00 92 1015.0
20260508032109 8 315 0.0 0.0 0.00 0.00 0.00 92 1015.0
20260508031056 8 353 0.0 0.0 0.00 0.00 0.00 92 1015.0
20260508030043 8 18 0.0 0.0 0.00 0.00 0.00 93 1015.0
20260508025043 8 318 0.0 0.0 0.00 0.00 0.00 93 1015.0
20260508024031 8 352 0.0 0.0 0.00 0.00 0.00 92 1015.1
20260508023031 8 354 3.2 3.2 0.00 0.00 0.00 92 1015.0
20260508022018 8 258 0.0 0.0 0.00 0.00 0.00 92 1014.9
20260508021008 8 0 0.0 0.0 0.00 0.00 0.00 92 1014.9
20260508020006 8 357 0.0 0.0 0.00 0.00 0.00 91 1014.9
20260508014954 8 324 1.6 1.6 0.00 0.00 0.00 91 1014.9
20260508012944 9 0 0.0 0.0 0.00 0.00 0.00 90 1014.9
20260508011928 9 30 1.6 1.6 0.00 0.00 0.00 89 1014.9
20260508010929 9 353 0.0 0.0 0.00 0.00 0.00 89 1014.9
20260508005916 9 353 0.0 0.0 0.00 0.00 0.00 88 1014.8
20260508004904 10 288 0.0 0.0 0.00 0.00 0.00 88 1014.7
20260508003904 10 342 0.0 0.0 0.00 0.00 0.00 88 1014.6
20260508002851 10 314 0.0 0.0 0.00 0.00 0.00 87 1014.6
20260508001840 10 357 0.0 0.0 0.00 0.00 0.00 87 1014.7
20260508000839 10 352 0.0 0.0 0.00 0.00 0.00 87 1014.6
20260507235826 10 300 0.0 0.0 0.00 0.00 0.00 88 1014.5
20260507234813 10 348 0.0 0.0 0.00 0.00 0.00 87 1014.5
20260507233801 10 6 0.0 0.0 0.00 0.00 0.00 88 1014.5
20260507232749 10 347 0.0 0.0 0.00 0.00 0.00 88 1014.5
20260507231748 10 78 0.0 0.0 0.00 0.00 0.00 87 1014.5
20260507230736 10 359 0.0 0.0 0.00 0.00 0.00 87 1014.5
20260507225736 10 0 0.0 0.0 0.00 0.00 0.00 87 1014.5
20260507224723 10 300 0.0 0.0 0.00 0.00 0.00 86 1014.6
20260507223723 10 354 1.6 1.6 0.00 0.00 0.00 86 1014.5
20260507222711 10 342 0.0 0.0 0.00 0.00 0.00 86 1014.5
20260507221711 10 348 0.0 0.0 0.00 0.00 0.00 86 1014.5
20260507220659 10 318 0.0 0.0 0.00 0.00 0.00 86 1014.3
20260507215658 10 354 0.0 0.0 0.00 0.00 0.00 86 1014.3
20260507214659 10 348 0.0 0.0 0.00 0.00 0.00 86 1014.3
20260507213658 10 0 0.0 0.0 0.00 0.00 0.00 87 1014.4
20260507212659 10 354 1.6 1.6 0.00 0.00 0.00 87 1014.3
20260507211646 10 276 0.0 0.0 0.00 0.00 0.00 87 1014.2
20260507210633 11 12 0.0 0.0 0.00 0.00 0.00 87 1014.1
20260507205634 11 358 0.0 0.0 0.00 0.00 0.00 86 1014.0
20260507204633 11 300 0.0 0.0 0.00 0.00 0.00 86 1013.9
20260507203622 11 0 1.6 1.6 0.00 0.00 0.00 87 1013.9
20260507202611 11 347 0.0 0.0 0.00 0.00 0.00 86 1013.9
20260507201556 11 347 0.0 0.0 0.00 0.00 0.00 87 1013.8
20260507200549 11 346 0.0 0.0 0.00 0.00 0.00 87 1013.8
20260507195534 11 352 0.0 0.0 0.00 0.00 0.00 87 1013.7
20260507194531 11 342 0.0 0.0 0.00 0.00 0.00 87 1013.6
20260507193518 11 294 0.0 0.0 0.00 0.00 0.00 88 1013.7
20260507192507 11 348 0.0 0.0 0.00 0.00 0.00 87 1013.7
20260507191456 11 10 0.0 0.0 0.00 0.00 0.00 88 1013.4
20260507190453 11 0 0.0 0.0 0.00 0.00 0.00 88 1013.1
20260507184441 12 359 1.6 1.6 0.00 0.00 0.00 87 1012.7
20260507183431 12 0 1.6 1.6 0.00 0.00 0.00 88 1012.5
20260507182428 12 6 3.2 3.2 0.00 0.00 0.00 88 1012.5
20260507180421 12 348 0.0 0.0 0.00 0.00 0.00 88 1012.0
20260507175416 12 336 3.2 3.2 0.00 0.00 0.00 88 1012.1
20260507174403 12 296 0.0 0.0 0.00 0.00 0.00 88 1012.1
20260507173403 13 342 0.0 0.0 0.00 0.00 0.00 86 1012.1
20260507172359 13 342 0.0 0.0 0.00 0.00 0.00 84 1012.2
20260507171351 13 18 1.6 1.6 0.00 0.00 0.00 84 1012.1
20260507170350 13 12 3.2 3.2 0.00 0.00 0.00 83 1012.1
20260507165341 13 348 0.0 0.0 0.00 0.00 0.00 83 1012.0
20260507164338 13 342 0.0 0.0 0.00 0.00 0.00 82 1011.7
20260507163325 14 348 0.0 0.0 0.00 0.00 0.00 81 1011.5
20260507162326 14 330 0.0 0.0 0.00 0.00 0.00 82 1011.3
20260507161313 15 352 0.0 0.0 0.00 0.00 0.00 81 1011.3
20260507160313 15 352 3.2 3.2 0.00 0.00 0.00 79 1011.3
20260507155309 15 351 0.0 0.0 0.00 0.00 0.00 79 1011.1
20260507154300 16 246 0.0 0.0 0.00 0.00 0.00 77 1011.2
20260507153250 15 235 0.0 0.0 0.00 0.00 0.00 77 1011.2
20260507152238 16 72 1.6 1.6 0.00 0.00 0.00 77 1011.4
20260507151223 16 350 3.2 3.2 0.00 0.00 0.00 76 1010.4
20260507150218 16 294 0.0 0.0 0.00 0.00 0.00 74 1010.9
20260507145212 17 318 0.0 0.0 0.00 0.00 0.00 73 1011.0
20260507144201 17 6 0.0 0.0 0.00 0.00 0.00 73 1010.7
20260507143158 17 60 1.6 1.6 0.00 0.00 0.00 70 1011.0
20260507141157 17 358 0.0 0.0 0.00 0.00 0.00 71 1010.9
20260507140151 17 328 0.0 0.0 0.00 0.00 0.00 73 1010.9
20260507135145 17 4 1.6 1.6 0.00 0.00 0.00 72 1010.9
20260507134145 17 342 0.0 0.0 0.00 0.00 0.00 70 1010.9
20260507133132 17 295 0.0 0.0 0.00 0.00 0.00 70 1011.0
20260507132123 17 355 0.0 0.0 0.00 0.00 0.00 71 1010.7
20260507131119 16 329 0.0 0.0 0.00 0.00 0.00 73 1010.8
20260507130107 16 317 0.0 0.0 0.00 0.00 0.00 75 1010.8
20260507125107 16 348 1.6 1.6 0.00 0.00 0.00 76 1011.0
20260507124054 16 158 1.6 1.6 0.00 0.00 0.00 75 1011.0
20260507123042 17 191 0.0 0.0 0.00 0.00 0.00 73 1011.0
20260507122029 16 341 0.0 0.0 0.00 0.00 0.00 75 1011.0
20260507121017 16 336 0.0 0.0 0.00 0.00 0.00 77 1011.1
20260507120005 16 203 0.0 0.0 0.00 0.00 0.00 75 1011.1
20260507115004 15 304 0.0 0.0 0.00 0.00 0.00 78 1011.1
20260507113955 15 5 1.6 1.6 0.00 0.00 0.00 79 1011.1
20260507112942 14 358 1.6 1.6 0.00 0.00 0.00 83 1011.3
20260507111939 13 342 0.0 0.0 0.00 0.00 0.00 85 1011.3
20260507110939 13 359 0.0 0.0 0.00 0.00 0.00 85 1011.2
20260507105927 14 358 0.0 0.0 0.00 0.00 0.00 83 1011.1
20260507104926 14 24 4.8 4.8 0.00 0.00 0.00 84 1011.0
20260507103927 14 309 0.0 0.0 0.00 0.00 0.00 84 1010.8
20260507102914 13 342 0.0 0.0 0.00 0.00 0.00 85 1010.7
20260507101914 13 342 0.0 0.0 0.00 0.00 0.00 85 1010.5
20260507100902 13 342 0.0 0.0 0.00 0.00 0.00 87 1010.4
20260507095852 13 346 0.0 0.0 0.00 0.00 0.00 88 1010.3
20260507094837 13 352 0.0 0.0 0.00 0.00 0.00 90 1010.2
20260507093825 13 352 0.0 0.0 0.00 0.00 0.00 90 1010.2
20260507092824 13 312 0.0 0.0 0.00 0.00 0.00 91 1010.0
20260507091815 13 330 0.0 0.0 0.00 0.00 0.00 91 1009.8
20260507090802 13 352 0.0 0.0 0.00 0.00 0.00 90 1009.7
20260507085749 13 312 0.0 0.0 0.00 0.00 0.00 90 1009.6
20260507084734 13 6 3.2 3.2 0.00 0.00 0.00 89 1009.4
20260507083734 13 354 1.6 1.6 0.00 0.00 0.00 88 1009.2
20260507082722 14 300 0.0 0.0 0.00 0.00 0.00 88 1008.9
20260507081711 14 351 0.0 0.0 0.00 0.00 0.00 89 1008.8
20260507080709 14 348 3.2 3.2 0.00 0.00 0.00 88 1008.7
20260507075701 14 18 1.6 1.6 0.00 0.00 0.00 88 1008.6
20260507074657 14 324 1.6 1.6 0.00 0.00 0.00 89 1008.4
20260507073644 14 346 0.0 0.0 0.00 0.00 0.00 89 1008.3
20260507072644 15 36 1.6 1.6 0.00 0.00 0.00 89 1008.2
20260507071631 15 348 0.0 0.0 0.00 0.00 0.00 89 1007.9
20260507070619 15 313 0.0 0.0 0.00 0.00 0.00 89 1008.0
20260507065610 15 0 3.2 3.2 0.00 0.00 0.00 89 1007.8
20260507064603 15 294 0.0 0.0 0.00 0.00 0.00 91 1007.7
20260507063555 14 345 1.6 1.6 0.00 0.00 0.00 92 1007.6
20260507062554 15 60 0.0 0.0 0.00 0.00 0.00 89 1007.5
20260507061554 15 354 0.0 0.0 0.00 0.00 0.00 86 1007.5
20260507060542 15 346 0.0 0.0 0.00 0.00 0.00 85 1007.3
20260507055529 15 342 1.6 1.6 0.00 0.00 0.00 87 1007.2
20260507054529 15 348 0.0 0.0 0.00 0.00 0.00 87 1007.2